FENGYUN 1C DEB, 31484

Orbit data source: Space-Track

FENGYUN 1C DEB, 31484 is space debris in SSO originally from a launch on Mon, 10 May 1999 UTC launched from the Taiyaun Space Center, China (TSC). Fengyun 1C debris stems from the Chinese weather satellite Fengyun-1C, which was intentionally destroyed by a Chinese anti-satellite missile in 2007. This event dramatically increased the amount of space debris, with thousands of trackable fragments posing hazards to satellites and human spaceflight. The Fengyun 1C debris cloud has become a focal point in discussions about space sustainability and the need for international regulations to prevent the creation of new debris.

Loading next visibility...
Identifier
31484, 1999-025BVY
Orbit
SSO
Country
Flag of CNCN / PRC
Related business
Manufacturer
Unknown
Mission
Spacecraft
Bus & Motor
Unknown
Mass
Unknown
Launch date (UTC)
1999-05-10 (27 years ago)
Launch vehicle
Unknown
Launch site
Taiyaun Space Center, China (TSC)
Object type
Payload
Rocket body
Debris
Shape & HBR
Unknown shape, 0.1 m
Radar Cross Section
Small (<0.1 m²)

Expand to show TLE details & history
Last TLE update: 23 hours ago

TLE from 23 hours ago
0 FENGYUN 1C DEB
1 31484U 99025BVY 26122.43436723  .00015620  00000-0  32792-2 0  9999
2 31484 101.8106 121.1755 0072211 129.3244 231.4373 14.58139818662835
Epoch: 2026-05-02T10:25Z
TLE epoch observation values (Epoch: 2026-05-02T10:25:29.328Z)
Latitude
0.00003°
Longitude
104.45097°
Altitude
734.124 km
Speed
7.471 km/s
True Right ascension
08h 04m 42s
True Declination
0° 00' 00"
Sunlit
Object was in daylight at epoch
Visualization orbit readout
Latitude
Unknown
Longitude
Unknown
Altitude
Unknown
Speed
Unknown
Apparent Right ascension
Unknown
Apparent Declination
Unknown
Sunlit
N/A
Visualization observer readout
Local Sidereal Time
17:29:55
Azimuth
Unknown
Elevation
Unknown
Doppler factor
Unknown
Orbital elements
Apogee altitude
747.558 km
Perigee altitude
645.385 km
Semi-major axis
7,074.608 km
Eccentricity
0.00722
Inclination
101.8106°
RAAN
121.1755°
Arg. of periapsis
129.3244°
True anomaly
230.79391°
Mean anomaly
231.4373°
Eccentric anomaly
231.11524°
Mean motion
3.64745 °/min
Orbital period
98.7 mins
BSTAR
0.0032792
Loading maneuver chart data...
Computing Atmospheric mass density...

Documentation

Showing up to 5 results
|